Tracking 18980 objects as of 20-Feb-2018
HD Live streaming from Space Station
objects crossing your sky now

FENGYUN 1C DEB

Track FENGYUN 1C DEB now!
10-day predictions


NORAD ID: 30609
Int'l Code: 1999-025AMQ
Perigee: 810.9 km
Apogee: 1,028.1 km
Inclination: 98.5 °
Period: 103.3 minutes
Semi major axis: 7290 km
RCS: 0.0181 m2 (small)
Launch date: May 10, 1999
Source: People's Republic of China (PRC)
Launch site: Taiyaun Space Center, China (TSC)

Note: This is SATELLITE DEBRIS
aabbcc
Your satellite tracking list
Your tracking list is empty




NASA's NSSDC Master Catalog

Two Line Element Set (TLE):
1 30609U 99025AMQ 18049.13096530 +.00000711 +00000-0 +51079-3 0  9996
2 30609 098.5487 121.8305 0148971 122.3408 239.2277 13.94652643558116
Source of the keplerian elements: AFSPC